time_stamp(utc),avg(mph),gust(mph),direction(deg),12m_air_temp(f),sonic_u(cm/s),sonic_v(cm/s),sonic_w(cm/s),pressure,2m_air_temp(f),pyranometer(W/m^2)
"2019-09-08 00:03:57+00",8.7,9.7,,72.2,-357,-70,9,1012.17,70.7,0
"2019-09-08 00:08:57+00",8.9,8.9,,72,-362,-106,13,1012.13,70.4,0
"2019-09-08 00:13:57+00",9.4,10.4,,72.1,-381,-91,7,1012.18,70.1,0
"2019-09-08 00:18:57+00",8.9,9.9,,71.9,-377,-65,7,1012.23,69.9,0
"2019-09-08 00:23:57+00",8.6,9.6,,71.7,-358,-69,12,1012.21,69.7,0
"2019-09-08 00:28:57+00",8.7,9.7,,71.5,-386,-6,20,1012.22,69.5,0
"2019-09-08 00:33:57+00",9.7,10.7,,71.5,-425,-2,20,1012.26,69.5,0
"2019-09-08 00:38:57+00",9.2,10.2,,71.6,-408,50,24,1012.32,69.4,0
"2019-09-08 00:43:57+00",8.7,9.7,,71.7,-382,49,21,1012.32,69.3,0
"2019-09-08 00:48:57+00",7.5,7.5,,71.5,-332,39,15,1012.44,69.2,0
"2019-09-08 00:53:57+00",6.5,7.5,,71.4,-282,45,12,1012.39,69.1,0
"2019-09-08 00:58:57+00",6.1,6.1,,71.2,-268,17,12,1012.53,68.9,0
"2019-09-08 01:03:57+00",5.5,5.5,,70.9,-243,1,13,1012.63,68.8,0
"2019-09-08 01:08:57+00",5.4,5.4,,70.8,-237,3,10,1012.64,68.6,0
"2019-09-08 01:13:57+00",5.1,6.1,,70.7,-219,21,6,1012.75,68.5,0
"2019-09-08 01:18:57+00",4.3,4.3,,70.5,-184,43,6,1012.8,68.3,0
"2019-09-08 01:23:57+00",3.1,3.1,,70.4,-121,57,5,1012.72,68.1,0
"2019-09-08 01:28:57+00",3.9,3.9,,70.1,-158,52,3,1012.76,67.9,0
"2019-09-08 01:33:57+00",6.1,6.1,,70.1,-259,54,12,1012.88,67.8,0
"2019-09-08 01:38:57+00",5.7,5.7,,70.1,-237,80,15,1012.89,67.7,0
"2019-09-08 01:43:57+00",6.7,7.7,,70.1,-289,57,14,1012.85,67.7,0
"2019-09-08 01:48:57+00",6.6,6.6,,70.3,-289,56,18,1012.99,67.6,0
"2019-09-08 01:53:57+00",6.2,7.2,,70.1,-270,41,13,1013.01,67.7,0
"2019-09-08 01:58:57+00",5.5,6.5,,69.8,-242,54,12,1013.04,67.7,0
"2019-09-08 02:03:57+00",5.0,6.0,,69.7,-220,25,6,1013.02,67.6,0
"2019-09-08 02:08:57+00",4.8,4.8,,69.6,-208,21,9,1013.01,67.5,0
"2019-09-08 02:13:57+00",5.6,6.6,,69.4,-239,42,6,1013.09,67.5,0
"2019-09-08 02:18:57+00",6.6,7.6,,69.3,-289,60,10,1013.16,67.4,0
"2019-09-08 02:23:57+00",6.5,7.5,,69.1,-281,37,16,1013.1,67.3,0
"2019-09-08 02:28:57+00",5.6,6.6,,69.1,-245,11,14,1013.03,67.1,0
"2019-09-08 02:33:57+00",5.6,6.6,,69.1,-242,28,14,1013.09,67,0
"2019-09-08 02:38:57+00",5.2,5.2,,69.1,-225,18,14,1012.96,66.9,0
"2019-09-08 02:43:57+00",5.9,5.9,,69.1,-262,14,12,1012.94,66.8,0
"2019-09-08 02:48:57+00",6.3,6.3,,69.1,-274,26,12,1013.01,66.7,0
"2019-09-08 02:53:57+00",6.9,7.9,,69.4,-301,33,16,1013.12,66.7,0
"2019-09-08 02:58:57+00",6.8,6.8,,69.4,-304,16,16,1013.05,66.7,0
"2019-09-08 03:03:57+00",7.5,7.5,,69.6,-333,22,18,1013.21,66.6,0
"2019-09-08 03:08:57+00",7.7,7.7,,69.9,-340,3,18,1013.22,66.6,0
"2019-09-08 03:13:57+00",7.5,7.5,,70,-333,29,19,1013.22,66.6,0
"2019-09-08 03:18:57+00",7.7,8.7,,70.1,-346,29,18,1013.21,66.7,0
"2019-09-08 03:23:57+00",7.6,8.6,,70,-338,5,21,1013.2,66.7,0
"2019-09-08 03:28:57+00",8.8,9.8,,69.8,-386,19,17,1013.19,66.7,0
"2019-09-08 03:33:57+00",8.5,8.5,,69.7,-376,3,16,1013.09,66.7,0
"2019-09-08 03:38:57+00",8.3,9.3,,69.5,-365,-21,16,1013.17,66.7,0
"2019-09-08 03:43:57+00",7.2,8.2,,69.3,-320,15,14,1013.28,66.8,0
"2019-09-08 03:48:57+00",5.6,6.6,,69.3,-244,-3,19,1013.27,66.8,0
"2019-09-08 03:53:57+00",3.6,4.6,,68.9,-145,-55,6,1013.33,66.6,0
"2019-09-08 03:58:57+00",3.1,4.1,,68.5,-122,-68,2,1013.33,66.4,0
"2019-09-08 04:03:57+00",7.8,9.8,,68.1,-262,-234,6,1013.28,66.1,0
"2019-09-08 04:08:57+00",6.8,6.8,,68.1,-294,-136,16,1013.36,65.9,0
"2019-09-08 04:13:57+00",7.4,8.4,,68.2,-255,-192,4,1013.37,65.8,0
"2019-09-08 04:18:57+00",7.1,7.1,,68.4,-251,-177,11,1013.4,65.7,0
"2019-09-08 04:23:57+00",7.5,7.5,,68.5,-261,-193,11,1013.41,65.6,0
"2019-09-08 04:28:57+00",7.5,8.5,,68.5,-266,-188,14,1013.39,65.6,0
"2019-09-08 04:33:57+00",7.5,8.5,,68.2,-235,-238,-2,1013.4,65.7,0
"2019-09-08 04:38:57+00",9.3,11.3,,68.1,-298,-265,8,1013.48,65.7,0
"2019-09-08 04:43:57+00",8.7,10.7,,68.1,-285,-245,12,1013.5,65.9,0
"2019-09-08 04:48:57+00",8.9,10.9,,68.1,-301,-238,11,1013.54,66.1,0
"2019-09-08 04:53:57+00",8.7,9.7,,68.2,-343,-197,9,1013.54,66.2,0
"2019-09-08 04:58:57+00",9.7,10.7,,68.2,-370,-220,12,1013.57,66.2,0
"2019-09-08 05:03:57+00",9.0,10.0,,68.2,-383,-188,8,1013.62,66.2,0
"2019-09-08 05:08:57+00",8.4,9.4,,68,-374,-149,13,1013.72,66.1,0
"2019-09-08 05:13:57+00",9.8,10.8,,67.9,-406,-133,15,1013.74,66.1,0
"2019-09-08 05:18:57+00",10.1,12.1,,67.9,-421,-130,16,1013.7,66,0
"2019-09-08 05:23:57+00",10.1,11.1,,67.8,-411,-107,18,1013.62,66.1,0
"2019-09-08 05:28:57+00",8.3,9.3,,67.5,-352,-57,9,1013.57,66.1,0
"2019-09-08 05:33:57+00",7.6,8.6,,67.4,-333,-15,14,1013.65,66.1,0
"2019-09-08 05:38:57+00",7.4,8.4,,67.5,-331,25,16,1013.58,66,0
"2019-09-08 05:43:57+00",8.6,9.6,,67.7,-381,60,22,1013.61,65.8,0
"2019-09-08 05:48:57+00",8.5,9.5,,67.8,-369,61,24,1013.67,65.9,0
"2019-09-08 05:53:57+00",10.3,12.3,,67.6,-444,87,24,1013.64,66.1,0
"2019-09-08 05:58:57+00",9.8,9.8,,67.5,-430,95,27,1013.66,66.2,0
"2019-09-08 06:03:57+00",11.1,12.1,,67.6,-496,92,25,1013.65,66.3,0
"2019-09-08 06:08:57+00",10.8,11.8,,67.7,-478,77,24,1013.63,66.5,0
"2019-09-08 06:13:57+00",10.1,12.1,,67.4,-447,36,26,1013.69,66.5,0
"2019-09-08 06:18:57+00",9.8,11.8,,67.3,-436,29,19,1013.68,66.4,0
"2019-09-08 06:23:57+00",11.0,13.0,,67.4,-497,64,20,1013.71,66.3,0
"2019-09-08 06:28:57+00",10.3,12.3,,67.8,-453,102,23,1013.76,66.4,0
"2019-09-08 06:33:57+00",9.6,10.6,,67.8,-412,116,38,1013.76,66.6,0
"2019-09-08 06:38:57+00",9.6,10.6,,67.9,-423,104,28,1013.7,66.6,0
"2019-09-08 06:43:57+00",10.1,12.1,,67.9,-441,66,28,1013.74,66.7,0
"2019-09-08 06:48:57+00",10.4,11.4,,68,-453,97,27,1013.72,66.8,0
"2019-09-08 06:53:57+00",10.1,12.1,,68,-434,110,21,1013.75,66.9,0
"2019-09-08 06:58:57+00",9.4,10.4,,68.1,-415,107,34,1013.73,67,0
"2019-09-08 07:03:57+00",9.7,11.7,,67.9,-420,122,39,1013.65,67.1,0
"2019-09-08 07:08:57+00",11.2,13.2,,67.8,-493,116,31,1013.67,67.1,0
"2019-09-08 07:13:57+00",10.7,11.7,,67.6,-459,141,23,1013.69,67,0
"2019-09-08 07:18:57+00",11.5,13.5,,67.7,-501,130,41,1013.72,67,0
"2019-09-08 07:23:57+00",9.4,11.4,,67.5,-406,110,58,1013.79,67,0
"2019-09-08 07:28:57+00",10.6,11.6,,67.5,-464,96,45,1013.86,66.9,0
"2019-09-08 07:33:57+00",10.0,12.0,,67.4,-430,99,25,1013.85,66.9,0
"2019-09-08 07:38:57+00",10.4,12.4,,67.2,-449,73,33,1013.91,66.8,0
"2019-09-08 07:43:57+00",10.9,12.9,,67.2,-476,77,31,1013.95,66.7,0
"2019-09-08 07:48:57+00",11.7,12.7,,67.2,-510,141,35,1013.96,66.6,0
"2019-09-08 07:53:57+00",11.9,13.9,,67.2,-507,167,33,1013.93,66.6,0
"2019-09-08 07:58:57+00",11.6,12.6,,67.3,-508,134,33,1013.98,66.6,0
"2019-09-08 08:03:57+00",10.5,12.5,,67.2,-461,99,41,1014.02,66.6,0
"2019-09-08 08:08:57+00",10.6,11.6,,67.1,-472,86,36,1014.09,66.6,0
"2019-09-08 08:13:57+00",11.0,13.0,,67,-488,104,31,1014.13,66.5,0
"2019-09-08 08:18:57+00",10.4,11.4,,67,-462,89,36,1014.1,66.4,0
"2019-09-08 08:23:57+00",9.2,11.2,,67,-397,99,39,1014.1,66.4,0
"2019-09-08 08:28:57+00",10.1,11.1,,67,-437,88,17,1014.15,66.4,0
"2019-09-08 08:33:57+00",10.5,11.5,,67,-455,149,33,1014.18,66.4,0
"2019-09-08 08:38:57+00",9.4,12.4,,66.9,-406,124,45,1014.21,66.4,0
"2019-09-08 08:43:57+00",9.9,10.9,,66.8,-403,178,30,1014.08,66.1,0
"2019-09-08 08:48:57+00",10.8,12.8,,66.7,-400,278,40,1014.04,65.9,0
"2019-09-08 08:53:57+00",11.9,13.9,,66.8,-396,348,28,1014.04,65.8,0
"2019-09-08 08:58:57+00",10.7,12.7,,66.8,-373,297,31,1014.23,65.8,0
"2019-09-08 09:03:57+00",10.1,11.1,,66.4,-354,285,34,1014.29,65.8,0
"2019-09-08 09:08:57+00",10.4,13.4,,66.1,-360,312,34,1014.37,65.6,0
"2019-09-08 09:13:57+00",10.8,12.8,,65.9,-378,302,40,1014.46,65.4,0
"2019-09-08 09:18:57+00",10.7,12.7,,65.7,-384,280,31,1014.51,65.2,0
"2019-09-08 09:23:57+00",9.0,10.0,,65.5,-350,195,25,1014.64,65,0
"2019-09-08 09:28:57+00",9.5,10.5,,65.4,-359,238,28,1014.66,64.8,0
"2019-09-08 09:33:57+00",11.5,13.5,,65.5,-414,293,18,1014.76,64.7,0
"2019-09-08 09:38:57+00",9.5,10.5,,65.5,-359,233,31,1014.92,64.6,0
"2019-09-08 09:43:57+00",9.2,11.2,,65.3,-356,196,21,1014.96,64.5,0
"2019-09-08 09:48:57+00",9.7,10.7,,65.2,-371,224,31,1015.01,64.4,0
"2019-09-08 09:53:57+00",9.1,10.1,,65,-365,198,20,1015.04,64.2,0
"2019-09-08 09:58:57+00",8.6,9.6,,65,-332,189,17,1015.06,64.1,0
"2019-09-08 10:03:57+00",7.6,9.6,,64.8,-255,219,34,1015.15,64,0
"2019-09-08 10:08:57+00",9.1,10.1,,64.8,-313,265,30,1015.16,64,0
"2019-09-08 10:13:57+00",9.5,10.5,,64.8,-325,275,30,1015.25,63.9,0
"2019-09-08 10:18:57+00",9.9,10.9,,64.9,-328,299,30,1015.23,63.9,0
"2019-09-08 10:23:57+00",9.2,10.2,,64.8,-315,256,27,1015.38,63.9,0
"2019-09-08 10:28:57+00",8.4,9.4,,64.7,-268,260,30,1015.43,63.9,0
"2019-09-08 10:33:57+00",10.0,12.0,,64.7,-342,275,22,1015.51,63.8,0
"2019-09-08 10:38:57+00",8.4,9.4,,64.7,-283,239,24,1015.59,63.8,0
"2019-09-08 10:43:57+00",8.3,9.3,,64.7,-292,223,30,1015.78,63.8,0
"2019-09-08 10:48:57+00",6.8,7.8,,64.7,-253,172,20,1015.77,63.8,0
"2019-09-08 10:53:57+00",7.0,7.0,,64.7,-271,159,17,1015.8,63.9,0
"2019-09-08 10:58:57+00",7.1,8.1,,64.7,-249,205,24,1015.82,64,0
"2019-09-08 11:03:57+00",7.0,8.0,,64.9,-260,169,20,1015.81,64.3,9
"2019-09-08 11:08:57+00",6.7,7.7,,65,-247,177,24,1015.81,64.6,12.1
"2019-09-08 11:13:57+00",6.4,7.4,,65.1,-241,154,20,1015.96,64.8,24.2
"2019-09-08 11:18:57+00",6.8,7.8,,65.1,-248,166,20,1016.02,65.1,34.8
"2019-09-08 11:23:57+00",6.5,7.5,,65.4,-226,178,18,1015.93,65.5,42.1
"2019-09-08 11:28:57+00",6.9,8.9,,65.6,-248,185,13,1016.07,66.1,53.2
"2019-09-08 11:33:57+00",5.1,6.1,,65.7,-182,132,20,1016.1,66.7,61.8
"2019-09-08 11:38:57+00",5.0,6.0,,65.8,-172,121,24,1016.17,67.1,66.1
"2019-09-08 11:43:57+00",5.0,6.0,,65.8,-178,125,9,1016.21,67.5,83.6
"2019-09-08 11:48:57+00",4.7,5.7,,66,-168,113,31,1016.33,68.1,92.7
"2019-09-08 11:53:57+00",5.1,6.1,,66.1,-226,63,22,1016.39,68.7,103.3
"2019-09-08 11:58:57+00",4.1,6.1,,66.1,-138,105,40,1016.37,69.2,112.5
"2019-09-08 12:03:57+00",4.8,5.8,,66.2,-168,122,18,1016.43,69.6,121.7
"2019-09-08 12:08:57+00",5.9,6.9,,66.3,-195,176,36,1016.39,69.7,129.6
"2019-09-08 12:13:57+00",6.7,7.7,,66.3,-250,144,29,1016.54,69.7,145.1
"2019-09-08 12:18:57+00",8.0,9.0,,66.3,-297,197,20,1016.68,69.8,155.7
"2019-09-08 12:23:57+00",6.3,7.3,,66.4,-228,158,46,1016.71,69.7,169.2
"2019-09-08 12:28:57+00",7.4,8.4,,66.6,-255,209,28,1016.88,70,180.4
"2019-09-08 12:33:57+00",7.6,8.6,,66.5,-267,194,-2,1016.88,69.9,189.3
"2019-09-08 12:38:57+00",7.1,8.1,,66.5,-237,204,8,1016.93,69.9,191.6
"2019-09-08 12:43:57+00",5.9,6.9,,66.7,-211,143,18,1017.03,69.8,203.7
"2019-09-08 12:48:57+00",6.4,7.4,,67,-244,150,32,1017.22,70.2,214.3
"2019-09-08 12:53:57+00",6.6,7.6,,67.2,-252,147,10,1017.27,70.7,224.3
"2019-09-08 12:58:57+00",6.5,7.5,,67.3,-262,125,11,1017.39,71.2,238.1
"2019-09-08 13:03:57+00",6.0,7.0,,67.3,-254,83,17,1017.42,71.7,210.6
"2019-09-08 13:08:57+00",6.7,7.7,,67.4,-277,125,43,1017.5,71.9,234.6
"2019-09-08 13:13:57+00",7.8,8.8,,67.6,-277,207,8,1017.64,71.7,243.3
"2019-09-08 13:18:57+00",7.1,8.1,,67.9,-241,205,47,1017.8,71.6,249.9
"2019-09-08 13:23:57+00",8.8,9.8,,68.2,-313,240,10,1017.85,71.6,265.3
"2019-09-08 13:28:57+00",8.5,10.5,,68.4,-283,242,32,1017.8,71.5,269.3
"2019-09-08 13:33:57+00",8.7,10.7,,68.9,-306,230,35,1017.84,71.6,274.4
"2019-09-08 13:38:57+00",8.0,9.0,,69,-244,249,32,1017.79,71.9,299.8
"2019-09-08 13:43:57+00",6.5,7.5,,69.1,-227,182,21,1017.83,72.2,280.3
"2019-09-08 13:48:57+00",7.5,8.5,,69.4,-301,145,15,1017.82,72.8,277.9
"2019-09-08 13:53:57+00",6.4,8.4,,69.5,-212,184,18,1017.76,73.4,302.5
"2019-09-08 13:58:57+00",5.5,7.5,,69.8,-216,113,19,1017.79,73.7,312.2
"2019-09-08 14:03:57+00",6.6,8.6,,70,-242,158,15,1017.69,74.1,335.7
"2019-09-08 14:08:57+00",5.7,6.7,,70.1,-204,134,17,1017.71,74.7,342.5
"2019-09-08 14:13:57+00",6.6,7.6,,70.2,-283,63,9,1017.75,75.6,330
"2019-09-08 14:18:57+00",5.7,6.7,,70.2,-232,81,8,1017.74,76.4,352.2
"2019-09-08 14:23:57+00",4.7,4.7,,70.3,-188,59,5,1017.77,77.3,366.1
"2019-09-08 14:28:57+00",5.8,6.8,,70.7,-221,116,37,1017.86,77.8,358.3
"2019-09-08 14:33:57+00",6.8,7.8,,70.7,-289,56,19,1017.81,78.3,372
"2019-09-08 14:38:57+00",6.2,7.2,,70.7,-261,54,-5,1017.94,78.8,351.1
"2019-09-08 14:43:57+00",5.5,6.5,,70.9,-234,22,32,1017.92,79.3,380.2
"2019-09-08 14:48:57+00",4.7,5.7,,71.3,-181,79,71,1017.93,79.5,372.9
"2019-09-08 14:53:57+00",7.0,8.0,,71.6,-298,84,19,1017.85,79.8,379.4
"2019-09-08 14:58:57+00",4.4,7.4,,71.6,-176,32,23,1017.93,80,407.9
"2019-09-08 15:03:57+00",6.0,7.0,,72,-262,31,48,1017.85,80.5,429
"2019-09-08 15:08:57+00",6.0,7.0,,72.2,-245,75,15,1017.79,80.9,432
"2019-09-08 15:13:57+00",4.6,5.6,,72.5,-168,91,40,1017.77,81,437.5
"2019-09-08 15:18:57+00",4.3,6.3,,72.6,-187,16,-15,1017.73,80.8,442.5
"2019-09-08 15:23:57+00",4.9,5.9,,72.8,-188,101,7,1017.68,80.7,447.6
"2019-09-08 15:28:57+00",5.8,7.8,,73.1,-243,70,42,1017.63,80.6,449.7
"2019-09-08 15:33:57+00",5.9,6.9,,73.5,-186,178,43,1017.77,80.8,456.9
"2019-09-08 15:38:57+00",5.8,6.8,,73.4,-229,112,13,1017.67,81,465.1
"2019-09-08 15:43:57+00",6.5,7.5,,73.4,-267,94,10,1017.81,81,451.9
"2019-09-08 15:48:57+00",4.4,5.4,,73.5,-179,-33,9,1017.74,81.5,468.9
"2019-09-08 15:53:57+00",4.1,5.1,,73.7,-133,-108,5,1017.66,81.6,467.9
"2019-09-08 15:58:57+00",4.3,6.3,,73.7,-177,-22,-18,1017.64,81.4,443.8
"2019-09-08 16:03:57+00",5.0,6.0,,73.9,-196,-99,-1,1017.68,81.4,467.7
"2019-09-08 16:08:57+00",5.9,8.9,,74.2,-233,-144,31,1017.67,81.7,464.1
"2019-09-08 16:13:57+00",5.3,7.3,,74.3,-157,-170,-16,1017.61,81.7,458.9
"2019-09-08 16:18:57+00",4.6,6.6,,74.6,-181,-78,-6,1017.63,81.1,455.4
"2019-09-08 16:23:57+00",5.1,7.1,,74.8,-200,-103,26,1017.64,81.3,464.6
"2019-09-08 16:28:57+00",2.9,3.9,,75,-114,-63,32,1017.56,81,398.8
"2019-09-08 16:33:57+00",6.0,7.0,,74.8,-177,-193,1,1017.62,80.2,431.2
"2019-09-08 16:38:57+00",12.1,13.1,,74,199,-476,11,1017.68,78.3,441.9
"2019-09-08 16:43:57+00",9.2,11.2,,73,132,-374,-27,1017.81,76.2,466.3
"2019-09-08 16:48:57+00",7.3,9.3,,72.9,31,-305,7,1017.85,75.7,464.7
"2019-09-08 16:53:57+00",8.8,9.8,,72.8,97,-358,-6,1017.89,75.3,466.7
"2019-09-08 16:58:57+00",7.8,9.8,,72.9,136,-302,22,1017.85,75.4,446.7
"2019-09-08 17:03:57+00",6.7,7.7,,73,100,-257,1,1017.76,75.6,459.7
"2019-09-08 17:08:57+00",7.1,8.1,,73.2,142,-256,13,1017.69,76,457.5
"2019-09-08 17:13:57+00",7.7,9.7,,73.6,77,-313,-4,1017.71,76.3,457.6
"2019-09-08 17:18:57+00",8.5,9.5,,73.1,73,-346,-35,1017.6,75.7,452.3
"2019-09-08 17:23:57+00",8.8,9.8,,73.3,154,-338,8,1017.49,76,452.5
"2019-09-08 17:28:57+00",8.9,10.9,,73.3,96,-351,1,1017.51,76.2,450.8
"2019-09-08 17:33:57+00",8.9,10.9,,73.1,85,-373,4,1017.43,76.2,450.2
"2019-09-08 17:38:57+00",10.1,11.1,,72.9,187,-391,-14,1017.38,75.7,446.8
"2019-09-08 17:43:57+00",10.6,12.6,,73,73,-446,-25,1017.32,75.4,447.8
"2019-09-08 17:48:57+00",9.0,11.0,,73.1,81,-366,-2,1017.36,75.5,443.6
"2019-09-08 17:53:57+00",9.5,12.5,,73,92,-396,-6,1017.32,75.5,444.9
"2019-09-08 17:58:57+00",12.1,14.1,,72.8,152,-488,-6,1017.31,75.4,423.4
"2019-09-08 18:03:57+00",9.8,11.8,,73,59,-407,-2,1017.34,75,231.9
"2019-09-08 18:08:57+00",8.7,12.7,,72.9,30,-368,1,1017.4,74.5,341.1
"2019-09-08 18:13:57+00",10.4,14.4,,72.4,64,-433,18,1017.36,73.6,124.3
"2019-09-08 18:18:57+00",12.2,14.2,,72.2,81,-525,-14,1017.31,73.1,156.8
"2019-09-08 18:23:57+00",12.4,14.4,,72.2,112,-522,-24,1017.3,73.3,343.1
"2019-09-08 18:28:57+00",10.7,13.7,,72.9,9,-453,-10,1017.37,73.7,139.7
"2019-09-08 18:33:57+00",11.2,14.2,,72.9,29,-503,-12,1017.28,73.6,172.9
"2019-09-08 18:38:57+00",10.8,14.8,,72.7,66,-458,-12,1017.24,73.6,328.7
"2019-09-08 18:43:57+00",11.6,13.6,,72.5,62,-498,-18,1017.27,73.5,118
"2019-09-08 18:48:57+00",12.5,13.5,,72.2,58,-538,-24,1017.11,73.1,143.7
"2019-09-08 18:53:57+00",13.0,15.0,,72,-4,-540,-31,1017.13,72.8,127.5
"2019-09-08 18:58:57+00",14.0,16.0,,72.2,17,-587,-34,1017.17,73.1,250.4
"2019-09-08 19:03:57+00",12.6,15.6,,72.4,-4,-525,-6,1017.13,73.1,104.1
"2019-09-08 19:08:57+00",11.4,15.4,,72.4,35,-477,-3,1017.21,72.9,97.8
"2019-09-08 19:13:57+00",13.5,16.5,,72.3,58,-573,-25,1017.23,72.8,149.3
"2019-09-08 19:18:57+00",14.9,18.9,,72.4,5,-633,-31,1017.13,72.9,104.4
"2019-09-08 19:23:57+00",14.0,17.0,,72.2,57,-596,0,1017.16,72.8,141
"2019-09-08 19:28:57+00",13.3,17.3,,72.4,49,-563,-16,1017.22,72.9,165.3
"2019-09-08 19:33:57+00",11.4,15.4,,72.8,-26,-479,-12,1017.27,73.5,312.5
"2019-09-08 19:38:57+00",11.4,15.4,,73.2,-28,-481,-9,1017.24,74,264.2
"2019-09-08 19:43:57+00",11.5,15.5,,73.8,-37,-479,-16,1017.25,74.7,313.7
"2019-09-08 19:48:57+00",10.0,13.0,,73.9,-61,-408,-18,1017.09,74.9,301.6
"2019-09-08 19:53:57+00",11.3,14.3,,73.7,-53,-462,-17,1017.09,74.9,244.9
"2019-09-08 19:58:57+00",9.9,13.9,,73.6,-88,-405,13,1017.11,74.8,301.9
"2019-09-08 20:03:57+00",9.5,14.5,,73.9,17,-394,8,1017.13,75.1,294.9
"2019-09-08 20:08:57+00",13.4,16.4,,73.5,16,-561,-18,1017.08,74.8,287.3
"2019-09-08 20:13:57+00",10.5,14.5,,73.7,-69,-448,-2,1017.15,74.9,277.9
"2019-09-08 20:18:57+00",9.6,15.6,,73.7,-65,-398,8,1017.1,75.1,267.9
"2019-09-08 20:23:57+00",13.7,16.7,,74,-164,-557,-40,1017.12,75.3,265.7
"2019-09-08 20:28:57+00",14.6,18.6,,73.3,-145,-602,-24,1017.23,74.7,198
"2019-09-08 20:33:57+00",11.7,14.7,,72.9,-127,-489,27,1017.28,74.1,153.2
"2019-09-08 20:38:57+00",14.3,19.3,,73.2,-129,-600,-25,1017.25,74.3,197.1
"2019-09-08 20:43:57+00",12.4,17.4,,73.4,-120,-523,-3,1017.23,74.5,189.6
"2019-09-08 20:48:57+00",12.6,16.6,,72.5,-87,-529,-37,1017.17,73.6,125.5
"2019-09-08 20:53:57+00",12.0,15.0,,72.3,-100,-498,-27,1017.22,73.1,90.8
"2019-09-08 20:58:57+00",9.2,12.2,,72.4,-38,-379,-12,1017.25,73.2,170.2
"2019-09-08 21:03:57+00",9.0,12.0,,72.9,-40,-389,7,1017.19,73.8,217.3
"2019-09-08 21:08:57+00",11.6,16.6,,72.7,-58,-483,-19,1017.2,73.6,84.8
"2019-09-08 21:13:57+00",10.8,14.8,,72.9,-93,-451,4,1017.23,73.6,199.2
"2019-09-08 21:18:57+00",12.5,17.5,,73.2,-130,-510,4,1017.21,74.1,169.7
"2019-09-08 21:23:57+00",9.4,15.4,,73,-102,-397,-5,1017.35,73.7,135.1
"2019-09-08 21:28:57+00",11.7,15.7,,73.1,-156,-483,3,1017.42,73.8,137.5
"2019-09-08 21:33:57+00",9.9,13.9,,73.1,-110,-400,16,1017.46,73.9,138.1
"2019-09-08 21:38:57+00",7.9,9.9,,73.4,-59,-328,20,1017.48,74.1,127.3
"2019-09-08 21:43:57+00",10.6,13.6,,72.9,-15,-442,-5,1017.5,73.6,39.5
"2019-09-08 21:48:57+00",8.2,11.2,,72.9,-109,-334,7,1017.53,73.5,101.7
"2019-09-08 21:53:57+00",10.0,13.0,,73.1,-110,-406,9,1017.51,73.6,115.5
"2019-09-08 21:58:57+00",9.9,12.9,,73.3,-110,-413,3,1017.52,73.9,109
"2019-09-08 22:03:57+00",10.0,13.0,,73.3,-124,-424,6,1017.48,73.9,81.8
"2019-09-08 22:08:57+00",10.7,13.7,,73.1,-115,-440,-9,1017.43,73.7,63.8
"2019-09-08 22:13:57+00",11.3,14.3,,73,-125,-459,-8,1017.5,73.5,52.5
"2019-09-08 22:18:57+00",11.4,14.4,,72.7,-115,-467,-22,1017.59,73.2,43.7
"2019-09-08 22:23:57+00",9.7,13.7,,72.6,-72,-394,16,1017.68,72.9,36.9
"2019-09-08 22:28:57+00",9.9,14.9,,72.4,-118,-409,5,1017.63,72.7,27.7
"2019-09-08 22:33:57+00",12.7,15.7,,72.3,-194,-514,-22,1017.78,72.6,17.6
"2019-09-08 22:38:57+00",9.5,11.5,,72.3,-106,-396,-4,1017.82,72.5,9.4
"2019-09-08 22:43:57+00",8.7,10.7,,72.2,-98,-360,1,1017.88,72.4,0.8
"2019-09-08 22:48:57+00",8.4,12.4,,72.1,-66,-344,6,1017.81,72.2,0
"2019-09-08 22:53:57+00",7.0,8.0,,71.9,-47,-292,4,1017.82,72,0
"2019-09-08 22:58:57+00",7.1,8.1,,71.7,-78,-286,-4,1017.97,71.7,0
"2019-09-08 23:03:57+00",7.0,9.0,,71.6,-108,-279,2,1018,71.4,0
"2019-09-08 23:08:57+00",6.9,8.9,,71.4,-81,-282,-5,1018.12,71.2,0
"2019-09-08 23:13:57+00",6.7,8.7,,71.2,-61,-280,-8,1018.23,70.9,0
"2019-09-08 23:18:57+00",7.8,9.8,,71.1,-40,-317,-15,1018.31,70.7,0
"2019-09-08 23:23:57+00",8.2,11.2,,71,-92,-338,-13,1018.38,70.6,0
"2019-09-08 23:28:57+00",7.8,9.8,,70.8,-101,-317,1,1018.52,70.4,0
"2019-09-08 23:33:57+00",6.8,9.8,,70.6,-85,-284,-4,1018.56,70.2,0
"2019-09-08 23:38:57+00",6.5,7.5,,70.5,-58,-266,-13,1018.55,70,0
"2019-09-08 23:43:57+00",6.6,8.6,,70.4,-80,-271,9,1018.52,69.9,0
"2019-09-08 23:48:57+00",6.8,9.8,,70.4,-90,-274,0,1018.55,69.8,0
"2019-09-08 23:53:57+00",5.4,7.4,,70.3,-73,-223,5,1018.46,69.7,0
"2019-09-08 23:58:57+00",5.3,7.3,,70.2,-41,-214,9,1018.56,69.7,0
